Location: Ammerl�gen
(47.2167°N, 9.6000°E)
Time: 12:34:01
(UTC+00:00)

RS-15 - Pass Details

Date: 11 December 2021
Orbit: 1882 x 2162 km, 64.8° (Epoch: 22 January)

Event Time Altitude Azimuth Distance (km) Brightness Sun altitude
Exits shadow 02:57:19 63° 338° (NNW) 2,276 8.1 -39.8°
Drops below altitude 10° 03:08:31 10° 39° (NE) 4,660 10.4 -37.9°
Sets 03:12:07 0° 43° (NE) 5,683 11.0 -37.3°
